Location: Newark
(15.5800°N, 32.5200°E)
Time: 05:12:48
(UTC+00:00)

Envisat - Visible Passes

Search period start: 13 November 2019 00:00
Search period end: 23 November 2019 00:00
Orbit: 764 x 766 km, 98.1° (Epoch: 12 November)

Date Brightness Start Highest point End Pass type
(mag) Time Alt. Az. Time Alt. Az. Time Alt. Az.
13 Nov 6.7 03:16:35 10° E 03:17:21 10° E 03:18:05 10° ESE visible
13 Nov 3.1 15:52:04 10° SSE 15:57:00 54° ENE 16:01:56 10° N visible
14 Nov 5.1 16:54:59 10° SSW 16:59:11 26° W 17:03:22 10° NW visible
15 Nov 3.2 16:17:23 10° S 16:22:26 74° WSW 16:27:30 10° NNW visible
16 Nov 3.4 15:41:04 10° SE 15:45:46 40° ENE 15:50:29 10° N visible
16 Nov 6.1 17:22:33 10° WSW 17:24:43 13° W 17:26:52 10° WNW visible
17 Nov 4.6 16:43:18 10° SSW 16:47:54 35° W 16:52:30 10° NW visible
18 Nov 6.1 03:28:27 10° ENE 03:31:36 16° E 03:34:43 10° SE visible
18 Nov 2.9 16:06:07 10° SSE 16:11:11 83° ENE 16:16:16 10° N visible
19 Nov 3.8 15:30:12 10° SE 15:34:34 30° ENE 15:38:56 10° NNE visible
19 Nov 5.8 17:10:07 10° SW 17:13:25 17° W 17:16:43 10° WNW visible
20 Nov 4.0 16:31:46 10° S 16:36:38 48° W 16:41:30 10° NNW visible
21 Nov 6.5 03:18:27 10° ENE 03:20:18 12° E 03:22:08 10° ESE visible
21 Nov 3.0 15:54:57 10° SSE 15:59:56 61° ENE 16:04:56 10° N visible
22 Nov 5.3 16:58:08 10° SSW 17:02:08 23° W 17:06:08 10° NW visible
